Terug naar catalogus

STARLINK-11635

ActiefCommunicatieVLEO
NORAD 63193·PAYLOAD·🇺🇸 United States

Gelanceerd Mar 13, 2025 vanaf Cape Canaveral Space Force Station

Loading…

Volgende Passages (komende 24 uur)

TLE

VersSource: CelesTrak SupGP

Epoch: Sep 14, 2026, 14:18 UTC

1 63193C 25048L   26257.59631944  .00036448  00000+0  28318-3 0  2570
2 63193  43.0005 260.9374 0001602 265.8973 125.5132 15.70813412    18

Volg STARLINK-11635 in realtime met AllMySat

Download on the App Store